| time (UTC) | temp F | wind direction | speed MPH | gust MPH | rain 1hr in | rain 24hr in | rain mn in | humidity % | barometer mb |
| 20260904211517 | 94 | 248 | 7.0 | 13.0 | 0.00 | 0.00 | 0.00 | 31 | 1024.1 |
| 20260904210517 | 94 | 248 | 6.0 | 10.0 | 0.00 | 0.00 | 0.00 | 32 | 1024.2 |
| 20260904205537 | 94 | 248 | 4.0 | 9.0 | 0.00 | 0.00 | 0.00 | 32 | 1024.2 |
| 20260904204537 | 95 | 315 | 3.0 | 6.0 | 0.00 | 0.00 | 0.00 | 31 | 1024.4 |
| 20260904203517 | 95 | 248 | 4.0 | 10.0 | 0.00 | 0.00 | 0.00 | 31 | 1024.7 |
| 20260904202517 | 95 | 293 | 6.0 | 12.0 | 0.00 | 0.00 | 0.00 | 33 | 1024.9 |
| 20260904201517 | 94 | 293 | 5.0 | 9.0 | 0.00 | 0.00 | 0.00 | 35 | 1025.0 |
| 20260904200517 | 94 | 315 | 3.0 | 6.0 | 0.00 | 0.00 | 0.00 | 34 | 1024.9 |
| 20260904195517 | 93 | 270 | 7.0 | 11.0 | 0.00 | 0.00 | 0.00 | 36 | 1025.2 |
| 20260904194517 | 93 | 293 | 5.0 | 9.0 | 0.00 | 0.00 | 0.00 | 35 | 1025.4 |
| 20260904193517 | 93 | 315 | 5.0 | 9.0 | 0.00 | 0.00 | 0.00 | 38 | 1025.6 |
| 20260904192517 | 92 | 248 | 4.0 | 8.0 | 0.00 | 0.00 | 0.00 | 38 | 1025.5 |
| 20260904191517 | 92 | 248 | 5.0 | 10.0 | 0.00 | 0.00 | 0.00 | 40 | 1025.8 |
| 20260904190517 | 92 | 338 | 1.0 | 4.0 | 0.00 | 0.00 | 0.00 | 40 | 1025.8 |
| 20260904185517 | 92 | 248 | 5.0 | 9.0 | 0.00 | 0.00 | 0.00 | 41 | 1025.9 |
| 20260904184537 | 91 | 338 | 3.0 | 5.0 | 0.00 | 0.00 | 0.00 | 41 | 1026.1 |
| 20260904183517 | 90 | 225 | 3.0 | 8.0 | 0.00 | 0.00 | 0.00 | 44 | 1026.1 |
| 20260904182517 | 90 | 270 | 4.0 | 10.0 | 0.00 | 0.00 | 0.00 | 44 | 1026.3 |
| 20260904181517 | 90 | 225 | 3.0 | 9.0 | 0.00 | 0.00 | 0.00 | 45 | 1026.6 |
| 20260904180517 | 89 | 180 | 2.0 | 7.0 | 0.00 | 0.00 | 0.00 | 49 | 1026.7 |
| 20260904175517 | 88 | 270 | 6.0 | 11.0 | 0.00 | 0.00 | 0.00 | 49 | 1026.8 |
| 20260904174516 | 87 | 270 | 6.0 | 11.0 | 0.00 | 0.00 | 0.00 | 50 | 1026.9 |
| 20260904173517 | 87 | 270 | 5.0 | 9.0 | 0.00 | 0.00 | 0.00 | 50 | 1026.9 |
| 20260904172517 | 87 | 248 | 3.0 | 7.0 | 0.00 | 0.00 | 0.00 | 51 | 1027.1 |
| 20260904171517 | 87 | 270 | 5.0 | 9.0 | 0.00 | 0.00 | 0.00 | 52 | 1027.2 |
| 20260904170517 | 86 | 248 | 3.0 | 6.0 | 0.00 | 0.00 | 0.00 | 54 | 1027.2 |
| 20260904165516 | 85 | 315 | 2.0 | 6.0 | 0.00 | 0.00 | 0.00 | 56 | 1027.0 |
| 20260904164517 | 85 | 225 | 4.0 | 7.0 | 0.00 | 0.00 | 0.00 | 56 | 1027.1 |
| 20260904163516 | 84 | 270 | 5.0 | 9.0 | 0.00 | 0.00 | 0.00 | 58 | 1027.0 |
| 20260904162517 | 83 | 248 | 3.0 | 6.0 | 0.00 | 0.00 | 0.00 | 59 | 1026.8 |
| 20260904161517 | 83 | 248 | 3.0 | 6.0 | 0.00 | 0.00 | 0.00 | 60 | 1026.9 |
| 20260904160517 | 83 | 293 | 4.0 | 6.0 | 0.00 | 0.00 | 0.00 | 60 | 1026.7 |
| 20260904155516 | 83 | 293 | 5.0 | 9.0 | 0.00 | 0.00 | 0.00 | 61 | 1026.7 |
| 20260904154516 | 82 | 270 | 4.0 | 10.0 | 0.00 | 0.00 | 0.00 | 63 | 1026.8 |
| 20260904153516 | 81 | 270 | 4.0 | 9.0 | 0.00 | 0.00 | 0.00 | 63 | 1026.8 |
| 20260904152516 | 81 | 270 | 3.0 | 7.0 | 0.00 | 0.00 | 0.00 | 64 | 1026.7 |
| 20260904151516 | 81 | 270 | 5.0 | 10.0 | 0.00 | 0.00 | 0.00 | 64 | 1026.8 |
| 20260904150516 | 80 | 270 | 4.0 | 8.0 | 0.00 | 0.00 | 0.00 | 65 | 1026.6 |
| 20260904145517 | 79 | 270 | 2.0 | 5.0 | 0.00 | 0.00 | 0.00 | 67 | 1026.6 |
| 20260904144516 | 78 | 248 | 3.0 | 5.0 | 0.00 | 0.00 | 0.00 | 69 | 1026.6 |
| 20260904143557 | 78 | 270 | 3.0 | 5.0 | 0.00 | 0.00 | 0.00 | 70 | 1026.5 |
| 20260904142517 | 77 | 315 | 2.0 | 4.0 | 0.00 | 0.00 | 0.00 | 72 | 1026.3 |
| 20260904141536 | 76 | 45 | 1.0 | 3.0 | 0.00 | 0.00 | 0.00 | 75 | 1026.2 |
| 20260904140516 | 74 | 45 | 1.0 | 2.0 | 0.00 | 0.00 | 0.00 | 79 | 1025.8 |
| 20260904135516 | 73 | 45 | 1.0 | 2.0 | 0.00 | 0.00 | 0.00 | 81 | 1025.8 |
| 20260904134516 | 73 | 0.0 | 1.0 | 0.00 | 0.00 | 0.00 | 81 | 1025.9 | |
| 20260904133516 | 72 | 0.0 | 1.0 | 0.00 | 0.00 | 0.00 | 81 | 1025.5 | |
| 20260904132516 | 72 | 0.0 | 2.0 | 0.00 | 0.00 | 0.00 | 81 | 1025.3 | |
| 20260904131516 | 72 | 0.0 | 2.0 | 0.00 | 0.00 | 0.00 | 81 | 1025.3 | |
| 20260904130516 | 72 | 90 | 2.0 | 3.0 | 0.00 | 0.00 | 0.00 | 80 | 1025.1 |
| 20260904125517 | 73 | 0.0 | 1.0 | 0.00 | 0.00 | 0.00 | 79 | 1025.1 | |
| 20260904124516 | 73 | 338 | 1.0 | 2.0 | 0.00 | 0.00 | 0.00 | 78 | 1025.0 |
| 20260904123536 | 73 | 293 | 1.0 | 2.0 | 0.00 | 0.00 | 0.00 | 77 | 1024.8 |
| 20260904122516 | 74 | 180 | 1.0 | 3.0 | 0.00 | 0.00 | 0.00 | 77 | 1024.8 |
| 20260904121516 | 74 | 180 | 1.0 | 3.0 | 0.00 | 0.00 | 0.00 | 77 | 1024.8 |
| 20260904120516 | 74 | 158 | 3.0 | 4.0 | 0.00 | 0.00 | 0.00 | 77 | 1024.7 |
| 20260904115516 | 74 | 158 | 1.0 | 3.0 | 0.00 | 0.00 | 0.00 | 76 | 1024.7 |
| 20260904114516 | 74 | 0.0 | 0.0 | 0.00 | 0.00 | 0.00 | 76 | 1024.7 | |
| 20260904113517 | 74 | 0.0 | 0.0 | 0.00 | 0.00 | 0.00 | 76 | 1024.7 | |
| 20260904112516 | 74 | 0.0 | 2.0 | 0.00 | 0.00 | 0.00 | 76 | 1024.7 | |
| 20260904111516 | 75 | 0.0 | 1.0 | 0.00 | 0.00 | 0.00 | 76 | 1025.1 | |
| 20260904110536 | 75 | 0.0 | 0.0 | 0.00 | 0.00 | 0.00 | 76 | 1025.2 | |
| 20260904105516 | 75 | 0.0 | 1.0 | 0.00 | 0.00 | 0.00 | 76 | 1025.1 | |
| 20260904104517 | 75 | 0.0 | 1.0 | 0.00 | 0.00 | 0.00 | 76 | 1024.9 | |
| 20260904103516 | 75 | 0.0 | 0.0 | 0.00 | 0.00 | 0.00 | 76 | 1024.9 | |
| 20260904102516 | 75 | 0.0 | 0.0 | 0.00 | 0.00 | 0.00 | 76 | 1024.9 | |
| 20260904101516 | 75 | 0.0 | 0.0 | 0.00 | 0.00 | 0.00 | 77 | 1024.9 | |
| 20260904100516 | 74 | 0.0 | 0.0 | 0.00 | 0.00 | 0.00 | 76 | 1024.9 | |
| 20260904095516 | 74 | 0.0 | 0.0 | 0.00 | 0.00 | 0.00 | 76 | 1024.9 | |
| 20260904094516 | 74 | 0.0 | 1.0 | 0.00 | 0.00 | 0.00 | 75 | 1024.8 | |
| 20260904093516 | 75 | 0.0 | 0.0 | 0.00 | 0.00 | 0.00 | 75 | 1024.8 | |
| 20260904092516 | 75 | 45 | 1.0 | 2.0 | 0.00 | 0.00 | 0.00 | 74 | 1024.9 |
| 20260904091536 | 75 | 0.0 | 2.0 | 0.00 | 0.00 | 0.00 | 73 | 1024.6 | |
| 20260904090516 | 76 | 0.0 | 2.0 | 0.00 | 0.00 | 0.00 | 73 | 1024.7 | |
| 20260904085516 | 76 | 0.0 | 2.0 | 0.00 | 0.00 | 0.00 | 73 | 1024.8 | |
| 20260904084516 | 75 | 158 | 2.0 | 3.0 | 0.00 | 0.00 | 0.00 | 73 | 1024.7 |
| 20260904083516 | 75 | 158 | 3.0 | 5.0 | 0.00 | 0.00 | 0.00 | 73 | 1024.8 |
| 20260904082516 | 76 | 158 | 2.0 | 3.0 | 0.00 | 0.00 | 0.00 | 72 | 1024.7 |
| 20260904081516 | 76 | 0.0 | 2.0 | 0.00 | 0.00 | 0.00 | 72 | 1024.7 | |
| 20260904080516 | 76 | 158 | 1.0 | 3.0 | 0.00 | 0.00 | 0.00 | 71 | 1024.8 |
| 20260904075516 | 76 | 0.0 | 1.0 | 0.00 | 0.00 | 0.00 | 71 | 1024.9 | |
| 20260904074516 | 77 | 135 | 1.0 | 2.0 | 0.00 | 0.00 | 0.00 | 70 | 1024.7 |
| 20260904073516 | 77 | 0.0 | 0.0 | 0.00 | 0.00 | 0.00 | 69 | 1024.6 | |
| 20260904072516 | 77 | 135 | 1.0 | 3.0 | 0.00 | 0.00 | 0.00 | 69 | 1024.6 |
| 20260904071516 | 77 | 0.0 | 1.0 | 0.00 | 0.00 | 0.00 | 69 | 1024.6 | |
| 20260904070516 | 77 | 0.0 | 2.0 | 0.00 | 0.00 | 0.00 | 69 | 1024.7 | |
| 20260904065516 | 77 | 0.0 | 0.0 | 0.00 | 0.00 | 0.00 | 69 | 1024.7 | |
| 20260904064516 | 77 | 0.0 | 0.0 | 0.00 | 0.00 | 0.00 | 69 | 1024.7 | |
| 20260904062516 | 77 | 0.0 | 0.0 | 0.00 | 0.00 | 0.00 | 68 | 1024.8 | |
| 20260904061516 | 77 | 0.0 | 0.0 | 0.00 | 0.00 | 0.00 | 67 | 1024.5 | |
| 20260904060516 | 78 | 23 | 2.0 | 3.0 | 0.00 | 0.00 | 0.00 | 67 | 1024.5 |
| 20260904055536 | 78 | 45 | 1.0 | 3.0 | 0.00 | 0.00 | 0.00 | 67 | 1024.7 |
| 20260904054536 | 78 | 45 | 2.0 | 3.0 | 0.00 | 0.00 | 0.00 | 66 | 1024.4 |
| 20260904053516 | 78 | 45 | 1.0 | 3.0 | 0.00 | 0.00 | 0.00 | 66 | 1024.4 |
| 20260904052516 | 79 | 0.0 | 1.0 | 0.00 | 0.00 | 0.00 | 65 | 1024.4 | |
| 20260904051516 | 79 | 0.0 | 0.0 | 0.00 | 0.00 | 0.00 | 64 | 1024.5 | |
| 20260904050516 | 79 | 203 | 1.0 | 2.0 | 0.00 | 0.00 | 0.00 | 63 | 1024.5 |
| 20260904045516 | 80 | 180 | 1.0 | 2.0 | 0.00 | 0.00 | 0.00 | 63 | 1024.6 |
| 20260904044516 | 80 | 45 | 4.0 | 7.0 | 0.00 | 0.00 | 0.00 | 63 | 1024.5 |
| 20260904043516 | 80 | 45 | 5.0 | 8.0 | 0.00 | 0.00 | 0.00 | 63 | 1024.5 |
| 20260904042516 | 80 | 45 | 6.0 | 11.0 | 0.00 | 0.00 | 0.00 | 63 | 1024.5 |
| 20260904041516 | 80 | 68 | 10.0 | 14.0 | 0.00 | 0.00 | 0.00 | 63 | 1024.3 |
| 20260904040516 | 80 | 45 | 9.0 | 13.0 | 0.00 | 0.00 | 0.00 | 62 | 1024.4 |
| 20260904035516 | 81 | 45 | 7.0 | 11.0 | 0.00 | 0.00 | 0.00 | 61 | 1024.5 |
| 20260904034516 | 81 | 68 | 9.0 | 14.0 | 0.00 | 0.00 | 0.00 | 60 | 1024.3 |
| 20260904033516 | 81 | 45 | 10.0 | 16.0 | 0.00 | 0.00 | 0.00 | 60 | 1024.2 |
| 20260904032516 | 82 | 45 | 10.0 | 19.0 | 0.00 | 0.00 | 0.00 | 59 | 1024.2 |
| 20260904031516 | 82 | 45 | 9.0 | 16.0 | 0.00 | 0.00 | 0.00 | 57 | 1023.9 |
| 20260904030536 | 82 | 45 | 9.0 | 14.0 | 0.00 | 0.00 | 0.00 | 57 | 1023.8 |
| 20260904025516 | 83 | 0 | 4.0 | 9.0 | 0.00 | 0.00 | 0.00 | 57 | 1023.9 |
| 20260904024516 | 83 | 0.0 | 0.0 | 0.00 | 0.00 | 0.00 | 56 | 1023.5 | |
| 20260904023516 | 83 | 45 | 1.0 | 3.0 | 0.00 | 0.00 | 0.00 | 56 | 1023.2 |
| 20260904022516 | 83 | 68 | 1.0 | 3.0 | 0.00 | 0.00 | 0.00 | 56 | 1023.1 |
| 20260904021536 | 84 | 90 | 1.0 | 3.0 | 0.00 | 0.00 | 0.00 | 55 | 1023.1 |
| 20260904020516 | 84 | 0.0 | 0.0 | 0.00 | 0.00 | 0.00 | 55 | 1023.1 | |
| 20260904015516 | 84 | 270 | 1.0 | 2.0 | 0.00 | 0.00 | 0.00 | 54 | 1022.9 |
| 20260904014516 | 85 | 203 | 1.0 | 3.0 | 0.00 | 0.00 | 0.00 | 54 | 1023.0 |
| 20260904013536 | 86 | 158 | 5.0 | 11.0 | 0.00 | 0.00 | 0.00 | 53 | 1022.9 |
| 20260904012516 | 87 | 203 | 7.0 | 13.0 | 0.00 | 0.00 | 0.00 | 52 | 1022.9 |
| 20260904011516 | 87 | 203 | 6.0 | 11.0 | 0.00 | 0.00 | 0.00 | 50 | 1022.6 |
| 20260904010536 | 88 | 180 | 11.0 | 15.0 | 0.00 | 0.00 | 0.00 | 49 | 1022.5 |
| 20260904005516 | 89 | 203 | 9.0 | 16.0 | 0.00 | 0.00 | 0.00 | 49 | 1022.6 |
| 20260904004516 | 89 | 203 | 7.0 | 11.0 | 0.00 | 0.00 | 0.00 | 46 | 1022.6 |
| 20260904003516 | 90 | 203 | 6.0 | 9.0 | 0.00 | 0.00 | 0.00 | 46 | 1022.6 |
| 20260904002516 | 90 | 180 | 8.0 | 13.0 | 0.00 | 0.00 | 0.00 | 46 | 1022.4 |
| 20260904001516 | 90 | 203 | 8.0 | 13.0 | 0.00 | 0.00 | 0.00 | 47 | 1022.3 |
| 20260904000556 | 90 | 225 | 9.0 | 14.0 | 0.00 | 0.00 | 0.00 | 46 | 1022.5 |
| 20260903235516 | 90 | 248 | 6.0 | 11.0 | 0.00 | 0.00 | 0.00 | 44 | 1022.4 |
| 20260903234516 | 90 | 248 | 7.0 | 10.0 | 0.00 | 0.00 | 0.00 | 44 | 1022.4 |
| 20260903233516 | 90 | 248 | 6.0 | 9.0 | 0.00 | 0.00 | 0.00 | 43 | 1022.4 |
| 20260903232516 | 91 | 270 | 4.0 | 8.0 | 0.00 | 0.00 | 0.00 | 42 | 1022.3 |
| 20260903231536 | 91 | 225 | 4.0 | 8.0 | 0.00 | 0.00 | 0.00 | 41 | 1022.4 |
| 20260903230516 | 91 | 270 | 4.0 | 9.0 | 0.00 | 0.00 | 0.00 | 41 | 1022.4 |
| 20260903225516 | 93 | 248 | 4.0 | 8.0 | 0.00 | 0.00 | 0.00 | 40 | 1022.5 |
| 20260903224556 | 93 | 203 | 4.0 | 10.0 | 0.00 | 0.00 | 0.00 | 39 | 1022.4 |
| 20260903223516 | 92 | 270 | 5.0 | 10.0 | 0.00 | 0.00 | 0.00 | 40 | 1022.5 |
| 20260903222516 | 92 | 248 | 3.0 | 6.0 | 0.00 | 0.00 | 0.00 | 40 | 1022.5 |
| 20260903221516 | 92 | 225 | 5.0 | 9.0 | 0.00 | 0.00 | 0.00 | 40 | 1022.6 |
| 20260903220536 | 93 | 203 | 4.0 | 10.0 | 0.00 | 0.00 | 0.00 | 39 | 1022.9 |
| 20260903215516 | 93 | 270 | 5.0 | 11.0 | 0.00 | 0.00 | 0.00 | 40 | 1022.9 |
| 20260903214516 | 92 | 248 | 5.0 | 9.0 | 0.00 | 0.00 | 0.00 | 39 | 1023.0 |
| 20260903213536 | 93 | 248 | 5.0 | 7.0 | 0.00 | 0.00 | 0.00 | 39 | 1023.2 |
| 20260903212556 | 93 | 248 | 6.0 | 10.0 | 0.00 | 0.00 | 0.00 | 39 | 1023.3 |